Satellite-Ground Cal/Val Site Overpasses Predictions

Prediction of Satellite NPP Overpassing Cal/Val Site: Antarctic Dome C

Ground Cal/Val Site Location: Latitude: -75.10, Longitude: 123.35; Satellite-Ground Site NADIR distance within 100 km.

Table of predicted overpasses for the next 14.0 days since TLE Epoch: 12/30/2017
Interval Starting Time Ending Time Minimum Distance Time Minimum Distance (km)
1 12/31/2017 14:55:07 12/31/2017 14:55:36 12/31/2017 14:55:22 22.10
2 01/01/2018 14:36:25 01/01/2018 14:36:40 01/01/2018 14:36:33 85.10
3 01/02/2018 07:37:58 01/02/2018 07:38:25 01/02/2018 07:38:11 37.99
4 01/03/2018 07:19:10 01/03/2018 07:19:30 01/03/2018 07:19:20 72.02
5 01/05/2018 15:01:24 01/05/2018 15:01:48 01/05/2018 15:01:36 58.97
6 01/06/2018 14:42:34 01/06/2018 14:42:59 01/06/2018 14:42:46 50.31
7 01/07/2018 07:44:14 01/07/2018 07:44:34 01/07/2018 07:44:24 73.02
8 01/08/2018 07:25:21 01/08/2018 07:25:48 01/08/2018 07:25:35 34.91
9 01/10/2018 15:07:47 01/10/2018 15:07:54 01/10/2018 15:07:50 96.57


NCC Satellite Cal/Val Overpasses Prediction Service
